OBJECT A, 60012

Orbit data source: Space-Track

You're viewing an uncataloged RSO

Recently launched and/or uncataloged RSOs may have evolving metadata. Metadata may include the following, but is not limited to: Owner, Manufacturer, Bus, Motor, and Mission.

OBJECT A, 60012 is a Chinese satellite in SSO that was launched on Thu, 06 Jun 2024 UTC via a GUSHENXING 1 launch vehicle from the Jiuquan Satellite Launch Center, China (JSC). Unknown objects in Earth's orbit typically refer to objects detected orbiting the Earth but have not yet been identified or cataloged. These objects could be anything from previously untracked satellites, spent rocket stages, debris from satellite collisions, or even natural meteoroids temporarily captured by Earth's gravity.

Loading next visibility...
Identifier
60012, 2024-110A
Orbit
SSO
Country
Flag of CNCN / PRC
Related business
Flag of CNBeijing Mumei Xingkong Keji YG (CN)
Manufacturer
Changguang WJ
Mission
Operational Commercial Imaging
Bus & Motor
JL1GF4, Unknown motor
Mass
~112 kg wet, ~112 kg dry
Launch date (UTC)
2024-06-06 (2 years ago)
Launch vehicle
GUSHENXING 1
Launch site
Jiuquan Satellite Launch Center, China (JSC)
Object type
Unknown
Shape & HBR
Box, 0.9 m
Radar Cross Section
1.500 m², Large (>1 m²)

Expand to show TLE details & history
Last TLE update: 12 hours ago

TLE from 12 hours ago
0 OBJECT A
1 60012U 24110A   26263.20781936  .00003997  00000-0  25213-3 0  9996
2 60012  97.5673 354.0603 0023019 228.8936 131.0306 15.09469181126278
Epoch: 2026-09-20T04:59Z
TLE epoch observation values (Epoch: 2026-09-20T04:59:15.592Z)
Latitude
-0.00002°
Longitude
-79.85997°
Altitude
551.366 km
Speed
7.58 km/s
True Right ascension
23h 36m 14s
True Declination
0° 00' 00"
Sunlit
Object was in full shadow at epoch
Visualization orbit readout
Latitude
Unknown
Longitude
Unknown
Altitude
Unknown
Speed
Unknown
Apparent Right ascension
Unknown
Apparent Declination
Unknown
Sunlit
N/A
Visualization observer readout
Local Sidereal Time
10:06:35
Azimuth
Unknown
Elevation
Unknown
Doppler factor
Unknown
Orbital elements
Apogee altitude
550.721 km
Perigee altitude
518.895 km
Semi-major axis
6,912.945 km
Eccentricity
0.0023
Inclination
97.5673°
RAAN
354.0603°
Arg. of periapsis
228.8936°
True anomaly
131.22921°
Mean anomaly
131.0306°
Eccentric anomaly
131.12994°
Mean motion
3.77614 °/min
Orbital period
95.34 mins
BSTAR
0.00025213
Loading maneuver chart data...
Computing Atmospheric mass density...
Loading historical data...
Loading historical data...
Loading historical data...
Loading historical data...
Loading historical data...
Loading historical data...
Loading historical data...
Other satellites on launch #110 in the year 2024 (2024-06-06 UTC)

Documentation

Showing up to 5 results
|